Regional Weather Roundup
Issued by NWS

Home | Current Version | Previous Version | Graphics & Text | Print | Product List | Glossary On
Versions: 1 2 3 4 5 6 7 8 9 10 11 12 13 14 15 16 17 18 19 20 21 22 23 24 25 26 27
000
ASUS45 KCYS 221010
RWRWY

WYOMING REGIONAL WEATHER ROUNDUP
NATIONAL WEATHER SERVICE CHEYENNE WY
400 AM MDT SUN OCT 22 2017

NOTE:  "FAIR" INDICATES FEW OR NO CLOUDS BELOW 12,000 FEET
WITH NO SIGNIFICANT WEATHER AND/OR OBSTRUCTIONS TO VISIBILITY.

WYZ001-221100-
YELLOWSTONE NATIONAL PARK

CITY           SKY/WX    TMP DP  RH WIND       PRES   REMARKS
LK YELLOWSTONE   N/A     29  26  89 VRB6      30.20F WCI  23
W YELLOWSTONE  NOT AVBL

$$
WYZ002>013-054>058-071-098>099-221100-
NORTHERN WYOMING

CITY           SKY/WX    TMP DP  RH WIND       PRES   REMARKS
JACKSON        CLOUDY    34  27  75 SW10      30.24S WCI  26
CODY           FAIR      47  26  44 W23G33    30.00R
GREYBULL       FAIR      30  20  66 S5        30.03R WCI  25
WORLAND        FAIR      26  19  74 CALM      30.03S
SHERIDAN       FAIR      30  19  63 SE5       29.89F WCI  25
BUFFALO        FAIR      35  10  35 SW3       29.93F
GILLETTE       FAIR      40  16  37 SW20      29.92F WCI  30
HULETT         FAIR      34  18  51 S9        29.94F WCI  26
NEWCASTLE      FAIR      28  18  64 CALM      30.00F

$$
WYZ014>020-022>026-101>103-221100-
CENTRAL WYOMING

CITY           SKY/WX    TMP DP  RH WIND       PRES   REMARKS
BIG PINEY      MOCLDY    20  14  77 CALM      30.29R
PINEDALE       CLOUDY    30  23  74 NW3       30.28S
DUBOIS         PTSUNNY   34  23  64 NW25G35   30.12F WCI  21
LANDER         FAIR      34  18  52 SW9       30.09S WCI  27
RIVERTON       FAIR      33  18  53 SW12      30.09S WCI  24
CASPER         FAIR      39  17  41 SW29G36   30.07R WCI  27
DOUGLAS        FAIR      40  17  39 W5        30.04F

$$
WYZ021-027>030-104>119-221100-
SOUTHERN WYOMING

CITY           SKY/WX    TMP DP  RH WIND       PRES   REMARKS
EVANSTON       FAIR      37  18  46 SW21G28   30.31F WCI  26
KEMMERER       CLOUDY    32  21  64 S3        30.30S
FORT BRIDGER   PTSUNNY   37  19  46 W15       30.33S WCI  28
ROCK SPRINGS   FAIR      36  16  44 W20G35    30.29F WCI  25
DIXON          CLOUDY    33  22  62 SW6       30.35F WCI  28
RAWLINS        FAIR      36  16  44 SW25G36   30.19F WCI  24
SARATOGA       FAIR      34  19  55 SW10G17   30.27F WCI  26
LARAMIE        FAIR      37  16  42 W23G29    30.15F WCI  26
CHEYENNE       FAIR      42  15  33 W13       30.12S
TORRINGTON     FAIR      46  14  27 W17       30.04F
PINE BLUFFS    FAIR      30  19  64 MISG      30.11F

$$




USA.gov is the U.S. government's official web portal to all federal, state and local government web resources and services.